Preview of NWS' New Version of Forecast
This preview is not operational and should not be used for support decisions.

Regional Weather Roundup (RWR)

Issued by National Weather Service (NWS)

                            
000
ASUS43 KTOP 200308
RWRKS 

WEATHER ROUNDUP FOR KANSAS
NATIONAL WEATHER SERVICE GOODLAND KS
1000 PM CDT SUN MAY 19 2019

NOTE:  "FAIR" INDICATES FEW OR NO CLOUDS BELOW 12,000 FEET WITH NO
SIGNIFICANT WEATHER AND/OR OBSTRUCTIONS TO VISIBILITY.

KSZ001>006-013>018-027>032-041>047-200400-
NORTHWEST KANSAS
  
CITY           SKY/WX    TMP DP  RH WIND       PRES   REMARKS
GOODLAND       CLOUDY    55  39  54 E14G22    29.94R                  
HAYS           CLOUDY    56  49  77 E8        29.99S                  
HILL CITY      CLOUDY    55  45  68 NE9       30.00R                  
RUSSELL        CLOUDY    55  47  74 NE5       29.98R                  
$$

KSZ061>065-074>080-084>089-200400-
SOUTHWEST KANSAS
  
CITY           SKY/WX    TMP DP  RH WIND       PRES   REMARKS
DODGE CITY     CLOUDY    57  47  69 E8        29.95S                  
ELKHART        MOCLDY    63  49  61 SE17      29.87S                  
GARDEN CITY    CLOUDY    56  49  77 E16       29.92F                  
GREAT BEND     CLOUDY    59  49  69 NE8       29.99R                  
LIBERAL        CLOUDY    60  46  59 E15       29.91S                  
PRATT          CLOUDY    59  53  80 NE6       29.98R                  
$$

KSZ066>073-081>083-090>101-200400-
SOUTHEAST KANSAS
  
CITY           SKY/WX    TMP DP  RH WIND       PRES   REMARKS
CHANUTE        CLEAR     61  51  70 NE5       29.98R                  
COFFEYVILLE    PTCLDY    61  55  81 NE8       29.95R                  
HUTCHINSON     PTCLDY    58  50  75 N6        29.98R                  
MEDICINE LODGE   N/A     57  51  80 NE7       29.96R                  
NEWTON         PTCLDY    57  51  80 NE6       30.00R                  
PARSONS        CLEAR     60  55  83 CALM      29.97R                  
WICHITA INTL   PTCLDY    62  49  62 NE8       29.97R                  
WICHITA JABRA  CLOUDY    58  50  75 NE3       29.97R                  
WICHITA MCCONL CLOUDY    59  50  71 NE5       29.97R                  
WINFIELD       PTCLDY    62  49  62 NE3       29.97R                  
$$

KSZ007>012-019>026-033>040-048>060-102>105-200400-
NORTHEAST KANSAS
  
CITY           SKY/WX    TMP DP  RH WIND       PRES   REMARKS
CONCORDIA      CLEAR     55  43  63 N8        30.01R                  
EMPORIA        PTCLDY    58  52  80 CALM      29.99R                  
LAWRENCE       CLOUDY    56  52  86 CALM      29.99R                  
MANHATTAN      CLOUDY    56  47  71 N5        29.99R                  
MARYSVILLE     CLEAR     52  43  71 N9        30.02R                  
OLATHE IND     CLEAR     57  48  72 W5        29.99R                  
OLATHE EXE     CLEAR     59  47  64 CALM      29.98R                  
SALINA         PTCLDY    58  48  69 N3        30.01R                  
TOPEKA BILLARD PTCLDY    56  50  80 NW3       29.99R                  
TOPEKA FORBES  CLOUDY    56  47  71 W6        29.99R                  
$$